• Join FlightAware (Why Join?)
  • Login
  • US Flag 
10:58PM EST


 

Airport Tracker/Info


-or-


 

Live Flight TrackerFlight Track Log ✈ SKW4757 ✈ 17-Jun-2013 ✈ KSFO - KLAX

Flight Track Log - Related Links

Times and Time Zones

All times are in EDT time to prevent confusion due to time zone crossing. See the SKW4757 flight status page for this flight to view local times or setup timezone preferences in your user account.

Time Position Orientation Groundspeed Altitude Reporting Facility
EDT Latitude Longitude Course Direction KTS MPH feet Rate Location/Type
06:27PM 37.6294 -122.4058 300° West 181 208 2,300  Level Oakland Center
06:27PM 37.6500 -122.4500 300° West 209 241 3,600 2,681 Climbing Northern Cal TRACON
06:28PM 37.6667 -122.5167 288° West 257 296 6,500 3,050 Climbing Northern Cal TRACON
06:29PM 37.6000 -122.5333 191° South 284 327 9,700 3,034 Climbing Northern Cal TRACON
06:30PM 37.5733 -122.5233 163° South 289 333 11,000 2,440 Climbing Oakland Center
06:31PM 37.5047 -122.4653 146° Southeast 311 358 13,400 2,049 Climbing Oakland Center
06:32PM 37.4406 -122.3742 132° Southeast 351 404 15,200 1,918 Climbing Oakland Center
06:33PM 37.3697 -122.2772 133° Southeast 375 432 17,300 1,967 Climbing Oakland Center
06:34PM 37.2958 -122.1750 132° Southeast 393 452 19,200 1,854 Climbing Oakland Center
06:35PM 37.2200 -122.0719 133° Southeast 403 464 21,100 2,098 Climbing Oakland Center
06:36PM 37.1267 -121.9408 132° Southeast 420 483 23,500 1,869 Climbing Oakland Center
06:37PM 37.0469 -121.8311 132° Southeast 429 494 24,900 1,377 Climbing Oakland Center
06:38PM 36.9608 -121.7208 134° Southeast 442 509 26,300 1,268 Climbing Oakland Center
06:39PM 36.8756 -121.6036 132° Southeast 455 524 27,500 1,366 Climbing Oakland Center
06:40PM 36.7864 -121.4811 132° Southeast 465 535 29,100 1,525 Climbing Oakland Center
06:41PM 36.6983 -121.3628 133° Southeast 465 535 30,600 1,512 Climbing Oakland Center
06:42PM 36.6106 -121.2442 133° Southeast 467 537 32,200 1,512 Climbing Oakland Center
06:43PM 36.5225 -121.1306 134° Southeast 460 529 33,700 1,328 Climbing Oakland Center
06:44PM 36.4294 -121.0211 137° Southeast 461 531 34,900 634 Climbing Oakland Center
06:45PM 36.3350 -120.9078 136° Southeast 475 547 35,000 49 Climbing Oakland Center
06:46PM 36.2175 -120.7675 136° Southeast 490 564 35,000  Level Oakland Center
06:47PM 36.1186 -120.6497 136° Southeast 493 567 35,000  Level Oakland Center
06:48PM 36.0203 -120.5331 136° Southeast 490 564 35,000  Level Oakland Center
06:49PM 35.9203 -120.4158 136° Southeast 493 567 35,000  Level Oakland Center
06:50PM 35.8206 -120.2975 136° Southeast 495 570 35,000  Level Oakland Center
06:51PM 35.7206 -120.1808 137° Southeast 493 567 35,000  Level Oakland Center
06:52PM 35.6181 -120.0625 137° Southeast 498 573 35,000  Level Oakland Center
06:52PM 35.5969 -120.0419 142° Southeast 494 568 35,000 -456 Level Los Angeles Center
06:54PM 35.4650 -119.9189 143° Southeast 490 564 34,400 -1,306 Descending Los Angeles Center
06:55PM 35.3553 -119.8136 142° Southeast 494 568 32,300 -1,984 Descending Los Angeles Center
06:56PM 35.2464 -119.7119 143° Southeast 491 565 30,300 -1,935 Descending Los Angeles Center
06:57PM 35.1403 -119.6117 142° Southeast 486 559 28,300 -1,765 Descending Los Angeles Center
06:58PM 35.0347 -119.5122 142° Southeast 481 554 26,300 -2,029 Descending Los Angeles Center
06:59PM 34.9094 -119.3967 143° Southeast 474 545 23,700 -2,468 Descending Los Angeles Center
07:00PM 34.8089 -119.3019 142° Southeast 466 536 21,200 -2,516 Descending Los Angeles Center
07:01PM 34.6919 -119.1911 142° Southeast 454 522 18,500 -1,984 Descending Los Angeles Center
07:02PM 34.5917 -119.1033 144° Southeast 449 517 17,100 -1,403 Descending Los Angeles Center
07:03PM 34.4969 -119.0206 144° Southeast 414 476 15,600 -1,452 Descending Los Angeles Center
07:04PM 34.3978 -118.9608 154° Southeast 397 457 14,100 -1,452 Descending Los Angeles Center
07:05PM 34.3044 -118.9003 152° Southeast 382 440 12,600 -1,016 Descending Los Angeles Center
07:06PM 34.2169 -118.8461 153° Southeast 352 405 12,000 -919 Descending Los Angeles Center
07:07PM 34.1161 -118.7936 157° South 330 380 10,700 -968 Descending Los Angeles Center
07:08PM 34.0439 -118.7436 150° Southeast 315 362 10,000 -341 Descending Los Angeles Center
07:09PM 34.0272 -118.6392 101° East 300 345 10,000 -634 Level Los Angeles Center
07:10PM 34.0178 -118.5397 97° East 297 342 8,700 -1,306 Descending Los Angeles Center
07:11PM 34.0106 -118.4500 96° East 288 331 7,300 -1,403 Descending Los Angeles Center
07:12PM 34.0286 -118.3611 76° East 279 321 5,800 -1,452 Descending Los Angeles Center
07:13PM 34.0447 -118.2764 77° East 265 305 4,300 -1,355 Descending Los Angeles Center
07:14PM 34.0428 -118.2097 92° East 228 262 3,000 -629 Descending Los Angeles Center
07:15PM 33.9892 -118.2244 193° South 190 219 3,000  Level Los Angeles Center